Clarksville, TN

8:00 AM CST on December 04, 2016 (GMT -0600)
Outlaw

Weather History for KCKV - February, 2013

Change the Weather History Date:

Friday, February 15, 2013

  Actual Average Record
Temperature  
Mean Temperature 38 °F 39 °F  
Max Temperature 49 °F 50 °F 75 °F (1949)
Min Temperature 26 °F 29 °F 5 °F (1986)
Degree Days  
Heating Degree Days 27 26  
Month to date heating degree days 352 410  
Since 1 July heating degree days 2579 2882  
Cooling Degree Days 0 0  
Month to date cooling degree days 0 0  
Year to date cooling degree days 1  
Moisture  
Dew Point 29 °F    
Average Humidity 64    
Maximum Humidity 85    
Minimum Humidity 42    
Precipitation  
Precipitation T in 0.15 in 1.70 in (1990)
Month to date precipitation 0.66 2.40  
Year to date precipitation 5.71  
Sea Level Pressure  
Sea Level Pressure 30.14 in    
Wind  
Wind Speed 9 mph (NNW)    
Max Wind Speed 22 mph    
Max Gust Speed 26 mph    
Visibility 10 miles    
Events      
T = Trace of Precipitation, MM = Missing Value Source: NWS Daily Summary

Daily Weather History Graph

Daily Weather History Graph

Search for Another Location

Airport or City:

Trip Planner

Search our weather history database for the weather conditions in past years. The results will help you decide how hot, cold, wet, or windy it might be!

Date:

Astronomy

Feb. 15, 2013 Rise Set
Actual Time 6:37 AM CST 5:30 PM CST
Civil Twilight 6:11 AM CST 5:57 PM CST
Nautical Twilight 5:40 AM CST 6:27 PM CST
Astronomical Twilight 5:10 AM CST 6:57 PM CST
Moon 9:23 AM CST (2/15) 11:19 PM CST (2/15)
Length of Visible Light 11h 46m
Length of Day
10h 53m
Waxing Crescent, 30% of the Moon is Illuminated
Feb 15
Waxing Crescent
Feb 17
First Quarter
Feb 25
Full
Mar 4
Last Quarter
Mar 11
New

Hourly Weather History & Observations

Time (CST) Temp. Windchill Dew Point Humidity Pressure Visibility Wind Dir Wind Speed Gust Speed Precip Events Conditions
12:52 AM 39.0 °F - 34.0 °F 82% 30.02 in 10.0 mi Calm Calm - 0.00 in   Clear
1:52 AM 37.9 °F 32.7 °F 33.1 °F 83% 30.03 in 10.0 mi NNW 6.9 mph - N/A   Partly Cloudy
2:52 AM 39.0 °F 34.8 °F 34.0 °F 82% 30.05 in 10.0 mi North 5.8 mph - N/A   Scattered Clouds
3:52 AM 39.0 °F 34.8 °F 34.0 °F 82% 30.06 in 10.0 mi North 5.8 mph - N/A   Mostly Cloudy
4:52 AM 37.9 °F - 33.1 °F 83% 30.08 in 10.0 mi Calm Calm - N/A   Mostly Cloudy
5:52 AM 37.9 °F 34.4 °F 34.0 °F 86% 30.09 in 10.0 mi WNW 4.6 mph - N/A   Overcast
6:52 AM 37.9 °F 34.4 °F 34.0 °F 86% 30.10 in 10.0 mi WNW 4.6 mph - N/A   Overcast
7:52 AM 42.1 °F 37.7 °F 35.1 °F 76% 30.13 in 10.0 mi NW 6.9 mph - N/A   Mostly Cloudy
8:52 AM 42.1 °F 34.2 °F 35.1 °F 76% 30.16 in 10.0 mi NNW 16.1 mph - N/A   Overcast
9:52 AM 42.1 °F 36.6 °F 34.0 °F 73% 30.17 in 10.0 mi NNW 9.2 mph - N/A   Overcast
10:52 AM 44.1 °F 39.0 °F 33.1 °F 65% 30.17 in 10.0 mi NNW 9.2 mph - N/A   Overcast
11:52 AM 46.9 °F - 30.9 °F 54% 30.16 in 10.0 mi NNW 11.5 mph - N/A   Partly Cloudy
12:52 PM 46.0 °F 41.9 °F 28.0 °F 50% 30.14 in 10.0 mi NNW 8.1 mph - N/A   Overcast
1:52 PM 48.0 °F - 28.9 °F 48% 30.12 in 10.0 mi NNW 17.3 mph 24.2 mph N/A   Mostly Cloudy
2:52 PM 48.0 °F - 27.0 °F 44% 30.13 in 10.0 mi NW 17.3 mph 23.0 mph N/A   Mostly Cloudy
3:52 PM 45.0 °F 37.6 °F 27.0 °F 49% 30.15 in 10.0 mi NNW 17.3 mph - N/A   Mostly Cloudy
4:52 PM 42.1 °F 35.7 °F 26.1 °F 53% 30.17 in 10.0 mi NNW 11.5 mph - N/A   Clear
5:52 PM 37.9 °F 32.1 °F 25.0 °F 60% 30.18 in 10.0 mi North 8.1 mph - N/A   Clear
7:52 PM 33.1 °F 24.9 °F 21.9 °F 64% 30.21 in 10.0 mi North 10.4 mph - N/A   Clear
8:52 PM 32.0 °F 24.8 °F 19.9 °F 61% 30.22 in 10.0 mi North 8.1 mph - N/A   Clear
9:52 PM 30.0 °F 21.7 °F 19.9 °F 66% 30.21 in 10.0 mi North 9.2 mph - N/A   Clear
10:52 PM 27.0 °F 19.5 °F 19.0 °F 72% 30.21 in 10.0 mi North 6.9 mph - N/A   Clear
11:52 PM 27.0 °F 23.0 °F 19.0 °F 72% 30.19 in 10.0 mi North 3.5 mph - N/A   Clear